[[{"header":{"parameterUnit":"m.s-1","parameterCategory":1,"la1":30.2992,"la2":30.254,"lo1":-89.0895,"lo2":-89.0443,"dy":0.0025,"dx":0.0025,"nx":19,"ny":19,"refTime":"2026-05-24T03:00:00:Z","depth":0,"parameterNumber":2,"parameterNumberName":"U-component_of_WINDS"},"data":[0,0,0,-2.2833,-2.2838,-2.3084,-2.3085,-2.3425,-2.3428,0,0,0,0,0,0,0,0,0,0,0,-2.2772,-2.2775,-2.2832,-2.2839,-2.3084,-2.3085,-2.3424,-2.3428,0,0,0,0,0,0,0,0,0,0,0,-2.2771,-2.2774,-2.2777,-2.2839,-2.3083,-2.3085,-2.3424,-2.323,0,0,0,0,0,0,0,0,0,0,-2.2988,-2.2943,-2.2773,-2.2777,-2.2841,-2.3083,-2.3085,-2.322,-2.3242,-2.3324,0,-2.3396,0,-2.3418,-2.3452,-2.3454,0,0,0,-2.2831,-2.2925,-2.2979,-2.2778,-2.2843,-2.3083,-2.2971,-2.3232,-2.3257,-2.3353,-2.3401,-2.3413,-2.3423,-2.3455,-2.3456,-2.3945,-2.3947,0,0,-2.2817,-2.2824,-2.2962,-2.2996,-2.2955,-2.2963,-2.2979,-2.3247,-2.3301,-2.3402,-2.3421,-2.3429,-2.3457,-2.346,-2.3942,-2.3945,0,0,0,-2.2784,-2.2815,-2.2862,-2.2982,-2.3024,-2.297,-2.2988,-2.3289,-2.3304,-2.3424,-2.3433,-2.3459,-2.3464,-2.3939,-2.3943,-2.4079,0,0,0,-2.2775,-2.2795,-2.2857,-2.2864,-2.302,-2.3159,-2.3025,-2.3285,-2.3315,-2.3431,-2.3459,-2.3467,-2.3936,-2.3941,-2.4069,-2.4144,0,0,0,-2.2752,-2.2792,-2.2831,-2.2863,-2.2968,-2.3154,-2.3184,-2.3292,-2.3321,-2.3454,-2.3468,-2.3934,-2.394,-2.406,-2.4129,-2.4274,0,0,0,-2.2731,-2.2951,-2.2834,-2.3084,-2.2967,-2.3235,-2.3182,-2.3383,-2.3513,-2.3461,-2.3937,-2.3943,-2.4058,-2.412,-2.4264,-2.4398,-2.4453,0,0,-2.3013,-2.2986,-2.3132,-2.3034,-2.3325,-2.3197,-2.351,-2.3625,-2.3633,-2.3841,-2.3853,-2.4073,-2.4128,-2.4272,-2.4761,-2.4805,0,0,0,-2.3224,-2.333,-2.3405,-2.3527,-2.3617,-2.3701,-2.3766,-2.3809,-2.3984,-2.374,-2.4163,-2.4196,-2.4281,-2.4344,-2.4382,-2.4454,-2.3972,-2.3971,-2.3971,-2.3636,-2.3631,-2.3873,-2.3898,-2.4018,-2.4081,-2.4178,-2.4247,-2.4211,-2.4311,-2.4373,-2.467,-2.4744,-2.4772,-2.4848,-2.4442,-2.4443,-2.4443,-2.4444,-2.405,-2.4199,-2.4141,-2.4356,-2.4351,-2.4533,-2.4603,-2.4571,-2.4742,-2.4623,-2.4697,-2.4568,-2.4821,-2.4887,-2.4454,-2.4452,-2.4451,-2.445,-2.4449,-2.432,-2.439,-2.4435,-2.461,-2.4746,-2.4764,-2.493,-2.492,-2.4913,-2.4986,-2.5051,-2.5049,-2.5047,-2.5017,-2.5018,-2.5019,-2.502,-2.5021,-2.5022,-2.4583,-2.4628,-2.4767,-2.4879,-2.4956,-2.5056,-2.5121,-2.5198,-2.528,-2.5261,-2.5261,-2.5216,-2.4845,-2.4753,-2.5038,-2.5035,-2.5033,-2.5031,-2.503,-2.5006,-2.4908,-2.5122,-2.5198,-2.533,-2.5466,-2.545,-2.5606,-2.5668,-2.5751,-2.5689,-2.5416,-2.5389,-2.5359,-2.5282,-2.5687,-2.5687,-2.5687,-2.5687,-2.5235,-2.5218,-2.5434,-2.5557,-2.5676,-2.5683,-2.5928,-2.5982,-2.6023,-2.6061,-2.6001,-2.5898,-2.5868,-2.5859,-2.5818,-2.5747,-2.6261,-2.6262,-2.6262,-2.5496,-2.549,-2.5699,-2.5733,-2.5835,-2.5923,-2.6154,-2.63,-2.6326,-2.6285,-2.6092,-2.6067,-2.5902,-2.5848,-2.5804,-2.5741,-2.561,0,0]},{"header":{"parameterUnit":"m.s-1","parameterCategory":1,"la1":30.2992,"la2":30.254,"lo1":-89.0895,"lo2":-89.0443,"dy":0.0025,"dx":0.0025,"nx":19,"ny":19,"refTime":"2026-05-24T03:00:00:Z","depth":0,"parameterNumber":3,"parameterNumberName":"V-component_of_WINDS"},"data":[0,0,0,-0.4334,-0.4333,-0.4318,-0.4318,-0.4282,-0.4282,0,0,0,0,0,0,0,0,0,0,0,-0.4329,-0.4329,-0.4334,-0.4333,-0.4318,-0.4318,-0.4282,-0.4282,0,0,0,0,0,0,0,0,0,0,0,-0.433,-0.4329,-0.4328,-0.4333,-0.4318,-0.4318,-0.4282,-0.4299,0,0,0,0,0,0,0,0,0,0,-0.4317,-0.4304,-0.4329,-0.4328,-0.4333,-0.4318,-0.4318,-0.4301,-0.4298,-0.4282,0,-0.4266,0,-0.4273,-0.4278,-0.4278,0,0,0,-0.434,-0.4306,-0.431,-0.4328,-0.4333,-0.4318,-0.4327,-0.43,-0.4297,-0.4279,-0.4266,-0.4265,-0.4273,-0.4278,-0.4278,-0.4163,-0.4162,0,0,-0.4341,-0.4322,-0.4312,-0.4308,-0.431,-0.4327,-0.4326,-0.4298,-0.4282,-0.4266,-0.4264,-0.4272,-0.4278,-0.4277,-0.4164,-0.4163,0,0,0,-0.4339,-0.4322,-0.4327,-0.4309,-0.4308,-0.4327,-0.4326,-0.4283,-0.4287,-0.4264,-0.4272,-0.4277,-0.4277,-0.4165,-0.4163,-0.4102,0,0,0,-0.434,-0.4321,-0.4327,-0.4315,-0.4308,-0.4295,-0.4311,-0.4289,-0.4286,-0.4272,-0.4277,-0.4276,-0.4166,-0.4164,-0.4105,-0.4075,0,0,0,-0.4333,-0.432,-0.4315,-0.4314,-0.4307,-0.4296,-0.4298,-0.4289,-0.429,-0.4278,-0.4276,-0.4166,-0.4164,-0.4109,-0.4081,-0.4038,0,0,0,-0.4321,-0.4261,-0.4314,-0.4249,-0.4307,-0.4259,-0.4299,-0.4264,-0.4246,-0.4277,-0.4166,-0.4163,-0.411,-0.4084,-0.4041,-0.3997,-0.3977,0,0,-0.4234,-0.425,-0.4214,-0.426,-0.4198,-0.4263,-0.4191,-0.4193,-0.421,-0.4177,-0.4175,-0.4104,-0.4081,-0.4038,-0.3876,-0.386,0,0,0,-0.418,-0.4153,-0.4141,-0.4123,-0.4123,-0.412,-0.4135,-0.4136,-0.4109,-0.419,-0.4079,-0.4066,-0.4041,-0.4021,-0.4007,-0.3986,-0.4154,-0.4154,-0.4154,-0.4028,-0.4052,-0.3993,-0.4015,-0.3997,-0.4013,-0.4,-0.4004,-0.4034,-0.4007,-0.3997,-0.3896,-0.3871,-0.3861,-0.3839,-0.3977,-0.3977,-0.3977,-0.3977,-0.3901,-0.3867,-0.3908,-0.3865,-0.389,-0.3854,-0.3867,-0.3889,-0.3858,-0.3906,-0.3885,-0.3933,-0.3843,-0.3825,-0.3972,-0.3973,-0.3974,-0.3974,-0.3974,-0.3803,-0.379,-0.3793,-0.3768,-0.3747,-0.3772,-0.374,-0.3765,-0.3788,-0.3768,-0.3759,-0.376,-0.3762,-0.3763,-0.3762,-0.3762,-0.3762,-0.3761,-0.3761,-0.3699,-0.3704,-0.3674,-0.3669,-0.366,-0.3651,-0.3666,-0.3658,-0.3654,-0.3675,-0.3675,-0.3706,-0.383,-0.386,-0.3756,-0.3757,-0.3757,-0.3758,-0.3758,-0.3558,-0.3594,-0.3548,-0.3539,-0.3534,-0.3509,-0.3543,-0.3523,-0.352,-0.3503,-0.3539,-0.3627,-0.3644,-0.3655,-0.368,-0.3535,-0.3535,-0.3535,-0.3535,-0.3474,-0.3485,-0.3443,-0.3427,-0.3414,-0.3438,-0.3383,-0.3394,-0.341,-0.3409,-0.3435,-0.347,-0.348,-0.3491,-0.3505,-0.3528,-0.3349,-0.3348,-0.3348,-0.3387,-0.3399,-0.3347,-0.3365,-0.3362,-0.3359,-0.3308,-0.3286,-0.3312,-0.3341,-0.3409,-0.3416,-0.3474,-0.3491,-0.352,-0.3542,-0.3584,0,0]}]]